Regional Weather Roundup
Issued by NWS Cleveland, OH

Home | Current Version | Previous Version | Graphics & Text | Print | Product List | Glossary On
Versions: 1 2 3 4 5 6 7 8 9 10 11 12 13 14 15 16 17 18 19 20 21 22 23 24 25 26 27 28 29 30 31 32 33 34 35 36 37 38 39 40 41 42 43 44 45 46 47 48 49 50
000
ASUS41 KCLE 060402
RWRCLE
OHIO REGIONAL WEATHER ROUNDUP
NATIONAL WEATHER SERVICE CLEVELAND, OH
1100 PM EST FRI FEB 05 2016

NOTE: "FAIR" INDICATES FEW OR NO CLOUDS BELOW 12,000 FEET WITH NO
SIGNIFICANT WEATHER AND/OR OBSTRUCTIONS TO VISIBILITY.

OHZ001>008-015>018-024>027-034-035-043-044-060500-
   NORTHWEST OHIO

CITY           SKY/WX    TMP DP  RH WIND       PRES   REMARKS
DEFIANCE       MOCLDY    31  24  75 W5        30.31R WCI  26
FINDLAY        PTCLDY    29  23  78 SW6       30.29F WCI  23
TOLEDO EXPRESS PTCLDY    29  22  75 SW6       30.28F WCI  23
TOLEDO EXEC    PTCLDY    31  22  69 SW7       30.30F WCI  24
LIMA           PTCLDY    28  21  75 S5        30.29F WCI  23
$$

OHZ009>014-019>023-028>033-038-089-060500-
   NORTHEAST OHIO

CITY           SKY/WX    TMP DP  RH WIND       PRES   REMARKS
CLE-HOPKINS    CLOUDY    34  20  56 S7        30.31F WCI  28
CLE-LAKEFRONT  MOCLDY    36  20  52 S13       30.29F
CUY CO. ARPT   CLOUDY    36  21  55 S13       30.30F
LORAIN-ELYRIA  CLOUDY    34  20  56 S9        30.29F WCI  27
ASHTABULA      CLOUDY    29  19  66 S8        30.31S WCI  21
AKRON-CANTON   CLOUDY    31  20  63 S6        30.30F WCI  25
WOOSTER        CLOUDY    32  21  64 S7        30.30F WCI  26
MANSFIELD      CLOUDY    32  20  61 S12       30.27F WCI  23
YOUNGSTOWN     CLOUDY    30  18  60 S6        30.30F WCI  24
$$

OHZ042-051>053-060>062-070>072-077>081-060500-
  SOUTHWEST OHIO

CITY           SKY/WX    TMP DP  RH WIND       PRES   REMARKS
CINC-COVINGTON PTCLDY    32  24  72 N10       30.32S WCI  24
CINC-LUNKEN    PTCLDY    32  22  66 CALM      30.35S
HAMILTON       CLEAR     31  25  78 NW3       30.35F
DAYTON         PTCLDY    29  25  85 N3        30.32F
WRIGHT-PAT AFB CLEAR     31  25  79 SE1       30.32F
DAYTON GENERAL CLEAR     30  22  72 N5        30.31F WCI  25
WILMINGTON     CLOUDY    32  20  61 S10       30.30F WCI  24
$$

OHZ036-037-039>041-045>050-054>059-063>069-073>076-082>088-060500-
  CENTRAL AND SOUTHEAST OHIO

CITY           SKY/WX    TMP DP  RH WIND       PRES   REMARKS
COLUMBUS       CLOUDY    35  17  47 S8        30.32F WCI  29
OSU AIRPORT    CLOUDY    35  19  52 S9        30.31S WCI  28
BOLTON FIELD   NOT AVBL
RICKENBACK AFB NOT AVBL
NEWARK         CLOUDY    34  20  56 S7        30.32F WCI  28
MARION         CLOUDY    31  23  72 W6        30.31S WCI  25
LANCASTER      CLOUDY    34  19  54 S3        30.33F
ZANESVILLE     CLOUDY    33  20  58 S6        30.34F WCI  28
NEW PHILLY     CLOUDY    30  22  72 SE3       30.34F
$$



USA.gov is the U.S. government's official web portal to all federal, state and local government web resources and services.